Volver al catálogo

GAOFEN 11 2

ActivoMilitarSSO
NORAD 46396·PAYLOAD·🇨🇳 China

Lanzado Sep 7, 2020 desde Taiyuan Satellite Launch Center

Loading…

Próximos Pases (próximas 24 horas)

TLE

ActualizadoSource: Space-Track

Época: Sep 14, 2026, 23:34 UTC

1 46396U 20064A   26257.98227582  .00004352  00000-0  18316-3 0  9991
2 46396  97.5256  24.1634 0018641 343.4458  16.6167 15.23770839335200

Sigue GAOFEN 11 2 en tiempo real con AllMySat

Download on the App Store